Location: Kumla
(59.1265°N, 15.1401°E)
Time: 16:58:50
(UTC+01:00)

A-11 Canister half - Pass Details

Date: 10 December 2023
Orbit: 1512 x 1687 km, 47.2° (Epoch: 25 February)

Event Time Altitude Azimuth Distance (km) Brightness Sun altitude
Rises 22:37:41 0° 210° (SSW) 4,702 - -51.5°
Reaches altitude 10° 22:41:17 10° 199° (SSW) 3,745 - -51.7°
Maximum altitude 22:48:44 27° 147° (SSE) 2,701 - -52.1°
Drops below altitude 10° 22:56:24 10° 95° (E) 3,864 - -52.5°
Sets 23:00:10 0° 84° (E) 4,878 - -52.7°
